Temperature
19 19 18 18 18 17 17 17 17 17 17 17 17 17 16 16 16 16 16 16 16 16 16 16 16 16 17 17 17 17 17 17 17 16 16 16 16 16 16 16 16 15 15
19 19 18 18 18 17 17 17 17 17 16 16 16 16 16 16 16 16 16 16 16 16 16 16 16 16 16 16 16 16 16 16 16 16 16 16 16 16 16 16 15 15 15
19 18 18 18 18 17 17 17 16 16 16 16 16 16 16 16 16 16 16 16 16 16 16 15 16 15 15 15 15 16 16 16 16 15 15 15 16 15 15 15 15 15 15
19 18 18 18 17 17 17 17 16 16 16 16 16 16 16 16 16 16 15 15 15 15 15 15 15 15 15 15 15 15 15 15 15 15 15 15 15 15 15 15 15 15 15
19 18 18 18 17 17 17 16 16 16 16 16 16 15 15 15 15 15 15 15 15 15 15 15 14 14 14 15 15 15 15 15 15 14 14 14 15 15 15 15 15 14 14
18 18 18 17 17 17 17 16 16 16 15 15 15 15 15 15 15 15 15 15 15 15 14 14 14 14 14 14 14 14 14 14 14 14 14 14 14 14 14 14 14 14 14
18 18 17 17 17 17 16 16 16 15 15 15 15 15 15 15 15 15 15 15 14 14 14 14 14 14 14 14 14 14 14 14 13 13 13 14 14 14 14 14 14 14 14
17 17 17 17 16 16 16 16 15 15 15 15 15 15 15 15 15 15 14 14 14 14 14 14 14 13 13 13 13 13 13 13 13 13 13 13 13 13 13 13 13 13 13
17 17 16 16 16 16 16 15 15 15 15 15 15 14 14 14 14 14 14 14 14 14 14 13 13 13 13 13 13 13 13 13 13 13 13 13 13 13 13 13 13 13 13
17 16 16 16 16 15 15 15 15 15 15 14 14 14 14 14 14 14 14 14 13 13 13 13 13 13 13 12 12 12 12 12 12 12 12 12 12 12 12 13 13 12 12
16 16 16 16 16 15 15 15 14 14 14 14 14 14 14 14 14 14 13 13 13 13 12 12 12 12 12 12 12 12 12 12 12 12 12 12 12 12 12 12 12 12 12
16 16 16 15 15 15 15 14 14 14 14 14 13 13 13 13 13 13 13 12 12 12 12 12 12 12 12 12 12 12 12 11 11 11 11 12 12 12 12 12 12 12 12
15 15 15 15 15 14 14 14 14 14 13 13 13 13 13 13 13 12 12 12 12 12 11 11 11 12 12 12 11 12 11 11 11 11 11 11 11 11 12 12 12 12 12
15 15 15 14 14 14 14 14 14 14 13 13 13 13 13 12 12 12 12 12 11 11 11 11 11 11 11 11 11 11 11 11 11 11 11 11 11 11 11 11 11 12 12
14 14 14 14 14 14 14 13 13 13 13 13 13 13 12 12 12 12 12 11 11 11 11 11 11 11 11 11 11 11 11 11 11 11 11 11 11 11 11 11 11 11 11
14 14 14 14 14 14 13 13 13 13 13 13 13 13 12 12 12 11 11 11 11 11 11 11 10 10 10 10 10 10 11 11 11 10 10 10 10 11 11 11 11 11 11
13 13 13 13 13 13 13 13 13 13 13 12 12 12 12 12 12 11 11 11 11 11 11 10 10 10 10 10 10 10 10 10 10 10 10 10 10 10 10 10 11 11 11
13 13 13 13 13 13 13 13 13 13 12 12 12 12 12 12 11 11 11 11 11 10 10 10 10 10 10 10 10 10 10 9 9 9 9 10 10 10 10 10 10 10 10
13 13 13 13 13 13 13 13 12 12 12 12 12 12 11 11 11 11 11 10 10 10 10 10 10 10 10 9 9 9 9 9 9 9 9 9 9 9 9 10 10 10 10
12 12 12 12 13 13 13 13 12 12 12 12 12 11 11 11 11 11 10 10 10 10 10 9 9 9 9 9 9 9 9 8 8 8 9 9 9 9 9 9 9 9 10
12 12 12 12 13 13 12 12 12 12 11 11 11 11 11 11 10 10 10 10 10 10 9 9 9 9 8 8 8 8 8 8 8 8 8 8 8 8 8 9 9 9 9
12 12 12 12 12 12 12 12 12 11 11 11 11 11 11 10 10 10 10 10 9 9 9 9 9 8 8 8 8 8 8 8 7 7 7 8 8 8 8 8 8 8 8
12 12 12 12 12 12 12 12 12 11 11 11 11 10 10 10 10 10 10 9 9 9 9 8 8 8 8 8 7 7 7 7 7 7 7 7 7 7 7 7 8 8 8
12 12 12 12 12 12 11 11 11 11 11 11 10 10 10 10 10 9 9 9 9 8 8 8 8 8 7 7 7 7 7 7 7 7 7 7 7 7 7 7 7 7 7
12 12 12 12 12 11 11 11 11 11 11 10 10 10 10 9 9 9 9 8 8 8 8 8 8 7 7 7 7 7 7 7 7 7 7 7 7 7 7 7 7 7 7
12 12 12 12 11 11 11 11 11 10 10 10 10 9 9 9 9 9 8 8 8 8 8 7 7 7 7 7 7 7 7 7 7 7 6 6 7 7 7 7 7 7 7
Wind_Speed
5 4 4 3 2 2 2 2 3 2 2 2 1 1 1 1 1 1 2 1 2 3 3 2 2 3 3 3 3 3 2 1 1 1 0 0 1 0 2 4 5 5 7
6 5 4 3 3 3 3 2 2 1 1 1 1 1 1 1 1 2 3 2 2 2 3 3 3 3 3 3 3 3 2 2 1 1 1 1 2 2 2 2 3 4 5
7 6 5 4 3 3 2 2 2 1 1 0 1 1 2 2 2 2 2 2 2 2 2 2 2 3 3 3 3 3 2 2 1 1 2 1 1 1 1 2 2 2 4
6 6 5 4 3 3 2 2 2 1 1 0 1 1 1 2 2 2 2 2 1 2 2 2 2 2 2 3 2 3 3 2 2 1 2 2 1 1 1 2 2 2 2
5 5 5 4 3 3 2 2 1 1 1 1 0 1 1 1 2 2 2 2 2 2 2 1 1 1 1 2 2 2 3 3 2 2 2 2 2 1 2 2 2 2 2
4 4 4 3 3 2 2 2 2 1 0 0 0 1 1 2 5 5 3 2 2 1 2 2 1 1 1 1 1 2 2 3 3 3 2 2 2 3 2 3 2 1 1
4 3 3 3 3 2 2 1 1 2 1 0 1 2 2 3 5 6 5 3 2 1 1 2 2 2 3 2 2 3 3 2 3 3 3 3 4 3 3 3 3 2 3
4 3 2 2 2 2 1 1 0 0 0 1 1 1 2 2 4 5 6 3 2 2 2 1 1 1 2 2 3 2 3 3 3 3 3 4 4 3 3 4 4 3 3
3 2 1 1 1 1 1 1 1 1 0 1 1 1 2 1 4 5 6 3 2 2 1 1 1 0 1 2 2 2 3 4 4 3 4 4 5 6 4 3 3 3 3
2 2 1 1 1 1 1 1 0 0 1 1 1 1 2 1 2 4 5 3 2 2 1 1 2 2 2 1 2 3 4 4 5 5 4 5 6 6 7 5 4 4 4
3 2 1 1 1 1 1 1 1 1 1 1 1 1 1 1 1 2 3 2 3 3 2 1 0 2 2 3 3 4 5 5 6 5 4 4 4 4 4 4 4 4 4
2 2 1 1 1 1 1 1 1 1 1 1 2 1 1 2 1 0 1 2 3 3 3 2 2 3 4 5 5 5 7 6 5 5 4 4 4 4 4 4 4 4 5
2 1 1 2 1 1 1 1 1 2 2 2 2 1 1 1 1 1 1 2 3 2 3 5 6 6 5 4 5 6 5 4 5 4 4 4 4 4 3 3 4 4 5
1 1 1 2 2 1 0 0 0 0 1 1 1 1 1 1 2 2 1 1 2 2 3 5 6 7 6 5 4 3 3 4 4 4 4 4 3 3 3 3 3 3 4
1 1 1 1 1 2 1 1 1 2 1 0 1 2 2 2 2 3 3 3 3 3 3 3 3 3 2 2 2 3 3 3 4 3 4 4 4 4 4 4 3 4 4
0 1 1 1 1 1 2 2 4 1 2 3 1 1 1 1 1 3 4 6 6 4 2 3 3 3 3 3 3 4 3 3 3 3 3 4 4 4 4 4 3 4 4
1 1 1 0 1 1 1 1 1 1 1 0 1 2 3 4 4 5 6 7 8 5 3 3 3 2 2 3 3 4 4 4 3 3 4 4 4 4 4 4 4 4 4
1 2 2 1 1 2 1 1 1 1 1 1 2 4 5 6 7 7 5 5 4 3 3 3 2 2 2 3 3 4 4 4 4 4 4 4 4 5 5 5 4 5 5
2 1 2 2 2 2 2 2 2 2 2 2 1 2 4 6 7 7 4 3 4 4 3 3 2 3 3 3 3 4 4 4 4 4 5 5 5 5 5 5 5 6 5
1 2 3 3 3 3 2 2 2 2 1 1 1 1 1 2 3 3 3 3 4 3 3 3 3 3 3 3 3 3 4 4 5 5 4 4 5 5 5 5 4 5 4
2 2 4 4 3 2 2 2 2 2 2 2 2 1 2 3 3 3 2 2 3 3 3 3 3 3 3 3 3 4 5 5 4 5 5 5 5 5 5 4 4 4 4
3 2 3 3 2 2 2 2 3 3 3 3 2 1 3 3 3 3 3 3 3 2 2 3 3 3 2 3 3 4 4 4 5 5 5 5 6 6 5 4 4 4 4
4 4 3 3 2 2 3 3 3 3 3 2 2 2 2 3 3 3 3 3 3 3 2 2 3 3 3 3 4 4 4 4 4 4 5 6 6 6 5 5 5 5 5
4 4 3 3 2 3 3 3 3 3 3 3 3 3 3 3 3 3 3 3 3 3 3 3 3 4 5 4 4 4 3 3 3 4 6 7 7 6 5 5 5 6 5
4 3 3 3 3 3 3 3 3 3 3 3 3 3 3 3 3 3 3 3 4 4 4 4 3 3 4 5 5 4 3 3 4 5 6 6 6 7 6 6 5 5 5
4 4 3 4 3 3 3 3 3 3 3 3 3 3 3 3 3 3 3 4 4 3 4 3 4 5 5 4 4 3 3 4 4 6 7 6 6 6 6 5 6 6 6
Wind_Direction
150 139 123 129 127 123 105 91 88 66 51 53 41 29 28 3 5 350 327 355 349 338 341 10 356 354 356 349 351 351 351 354 282 290 219 145 147 217 147 157 176 175 175
145 136 134 142 144 133 126 120 117 116 91 56 17 0 339 19 22 358 334 359 351 350 354 1 357 353 356 348 352 357 352 332 287 280 281 228 194 205 187 208 191 183 169
144 141 144 151 147 144 141 144 144 136 123 83 37 3 344 1 14 1 344 341 352 358 348 352 360 359 350 352 351 345 334 330 322 272 278 262 211 212 219 239 229 198 195
145 148 150 156 152 152 155 157 148 146 137 67 16 344 348 8 360 352 346 332 357 356 349 359 1 12 348 334 333 339 336 340 333 313 298 298 275 246 224 245 242 235 229
143 149 147 150 154 155 161 159 152 159 159 126 14 336 337 0 353 357 338 336 347 342 340 337 349 34 31 356 350 349 343 336 319 303 293 299 308 316 277 259 249 239 227
135 137 137 145 145 151 162 169 160 167 156 149 312 32 10 13 13 9 0 335 319 319 324 321 321 34 24 20 6 328 311 308 322 320 306 299 295 296 304 293 292 285 270
133 138 150 157 167 173 191 157 170 186 190 156 88 82 64 27 12 4 353 324 307 312 316 309 308 341 33 4 335 338 337 306 273 284 293 290 293 304 304 298 305 300 277
136 144 151 165 170 170 158 143 163 137 153 148 127 104 89 23 9 353 336 306 292 284 284 291 308 0 356 344 317 324 315 313 284 270 273 283 296 308 298 281 277 275 260
139 142 156 156 157 175 177 180 180 164 119 137 115 95 95 28 6 357 342 290 294 304 290 332 349 54 8 343 312 300 295 291 291 289 273 267 271 281 292 304 291 281 274
134 122 122 146 166 177 184 177 142 177 154 153 111 89 91 64 11 359 347 314 317 310 302 85 52 43 21 352 297 290 286 292 300 295 280 266 258 259 258 248 263 270 272
121 120 114 108 150 161 145 139 168 186 149 139 133 146 129 123 70 19 14 344 327 316 309 314 70 14 342 303 278 263 265 281 285 277 272 266 260 257 249 244 245 253 267
120 128 140 138 217 153 133 148 160 171 188 195 202 208 172 160 151 144 3 334 334 326 320 334 345 331 313 298 283 266 270 278 272 267 268 265 265 263 258 252 255 254 249
113 132 162 156 131 112 162 173 175 194 223 226 222 225 188 153 148 181 235 293 311 305 315 328 318 307 301 289 276 272 268 263 264 263 268 266 264 264 261 252 249 247 252
144 149 162 146 141 123 122 180 227 256 277 295 299 316 58 57 44 28 344 305 303 301 306 312 304 285 277 278 287 287 259 261 272 274 276 281 289 288 278 266 260 252 252
163 188 185 155 140 121 95 41 25 24 61 7 336 351 355 353 10 6 352 337 332 334 320 303 303 302 305 295 286 282 282 285 281 283 286 294 292 286 279 275 265 258 254
314 239 208 153 144 159 135 77 49 78 106 118 152 195 266 275 263 294 299 298 297 300 305 288 295 300 305 309 304 292 287 294 300 298 290 288 286 282 280 281 275 270 271
349 307 283 245 201 234 193 162 160 30 35 157 239 232 223 242 259 274 285 298 296 283 268 276 282 297 312 313 310 310 312 316 312 303 294 290 291 288 286 282 276 272 267
327 322 304 265 255 263 243 229 226 226 250 280 261 239 236 241 252 263 281 306 296 270 272 280 281 294 305 313 317 320 320 324 320 311 304 300 289 282 281 279 273 275 279
296 280 304 306 277 264 257 250 246 234 241 240 244 261 242 244 250 260 260 270 277 285 295 309 319 321 321 319 320 319 316 315 318 316 310 307 301 292 284 279 278 276 269
254 260 267 273 267 262 266 275 278 275 283 301 308 331 304 264 266 263 241 257 280 292 309 317 322 321 321 324 321 314 316 320 323 317 316 317 314 309 303 297 293 290 279
258 237 251 272 284 307 321 327 322 313 314 305 301 270 264 281 289 292 279 270 287 303 315 314 307 307 310 314 319 319 319 315 318 320 321 318 315 310 302 300 296 291 297
292 266 259 274 283 299 305 295 288 288 291 292 280 277 244 271 295 304 303 298 290 292 304 303 305 314 320 322 314 311 311 314 319 321 320 314 307 304 302 303 303 300 296
275 271 269 282 292 286 271 275 282 280 283 295 302 290 271 287 300 302 298 302 306 310 311 305 307 320 328 320 306 300 303 311 307 307 308 304 301 303 304 301 299 298 294
272 277 278 281 274 267 277 290 293 295 301 300 295 293 290 289 293 299 303 310 312 315 312 308 308 313 314 310 310 310 310 311 305 301 298 295 297 296 296 296 293 293 292
278 283 286 283 274 270 284 293 294 298 302 302 306 308 311 307 307 313 319 324 318 313 313 311 311 317 317 320 323 319 346 328 311 303 293 288 288 288 284 286 290 294 289
283 287 286 285 285 278 282 288 292 298 298 302 306 308 312 311 315 327 331 331 325 322 321 324 330 331 325 326 328 338 325 302 296 292 284 279 280 282 284 284 287 285 285
Height
1505 1506 1507 1508 1509 1510 1510 1510 1510 1510 1510 1510 1510 1510 1509 1509 1508 1508 1508 1507 1507 1507 1507 1507 1507 1507 1507 1507 1507 1508 1508 1508 1508 1509 1509 1509 1509 1509 1508 1508 1508 1507 1507
1504 1505 1506 1507 1508 1509 1509 1509 1510 1510 1509 1509 1509 1509 1509 1508 1507 1507 1507 1506 1506 1505 1505 1505 1505 1505 1505 1505 1505 1505 1506 1506 1506 1506 1507 1507 1507 1507 1507 1506 1506 1506 1506
1503 1504 1506 1506 1507 1508 1508 1509 1509 1509 1509 1509 1508 1508 1508 1507 1507 1506 1506 1505 1505 1504 1504 1503 1503 1503 1503 1503 1504 1504 1504 1504 1504 1504 1504 1505 1505 1505 1505 1505 1505 1504 1504
1502 1503 1504 1505 1506 1507 1507 1507 1508 1508 1508 1508 1508 1507 1506 1506 1505 1505 1504 1504 1504 1503 1503 1502 1502 1502 1502 1502 1502 1502 1502 1502 1502 1502 1502 1503 1503 1503 1502 1502 1502 1502 1503
1501 1502 1503 1504 1505 1505 1506 1506 1506 1506 1507 1506 1506 1506 1505 1504 1504 1503 1503 1503 1502 1501 1501 1500 1500 1500 1500 1500 1500 1500 1500 1500 1500 1500 1500 1500 1500 1500 1500 1500 1500 1500 1500
1500 1501 1502 1503 1503 1504 1505 1505 1505 1505 1505 1505 1505 1504 1504 1503 1502 1502 1501 1500 1500 1499 1499 1498 1498 1498 1498 1497 1497 1498 1498 1498 1498 1498 1497 1498 1497 1498 1498 1498 1497 1498 1498
1498 1499 1500 1501 1502 1503 1503 1503 1503 1503 1503 1503 1503 1502 1502 1501 1501 1500 1499 1499 1498 1497 1496 1496 1496 1496 1495 1495 1495 1495 1495 1495 1496 1496 1495 1495 1495 1495 1495 1495 1495 1495 1495
1497 1498 1498 1499 1500 1500 1501 1501 1501 1501 1501 1501 1501 1500 1500 1499 1499 1498 1497 1497 1496 1495 1495 1494 1493 1493 1492 1492 1492 1492 1492 1492 1492 1492 1492 1492 1492 1492 1492 1492 1492 1492 1492
1495 1496 1497 1498 1498 1498 1499 1499 1499 1499 1499 1499 1499 1498 1498 1497 1497 1496 1495 1494 1494 1493 1492 1491 1491 1490 1489 1489 1489 1488 1488 1488 1489 1489 1489 1489 1489 1489 1489 1489 1489 1489 1488
1494 1494 1495 1496 1496 1496 1496 1496 1497 1497 1497 1497 1497 1496 1496 1495 1494 1494 1493 1492 1491 1491 1490 1489 1488 1487 1486 1486 1486 1485 1485 1485 1485 1485 1485 1485 1486 1486 1486 1486 1486 1486 1485
1492 1493 1493 1494 1494 1494 1494 1494 1495 1495 1495 1495 1494 1494 1493 1493 1492 1491 1490 1489 1489 1488 1488 1487 1485 1485 1484 1483 1483 1483 1482 1482 1482 1482 1482 1482 1482 1482 1482 1483 1483 1483 1482
1491 1491 1492 1492 1492 1493 1492 1492 1493 1493 1493 1493 1492 1492 1492 1491 1490 1489 1488 1487 1486 1486 1485 1485 1484 1483 1482 1481 1480 1480 1480 1480 1480 1480 1480 1479 1479 1479 1479 1479 1479 1479 1479
1489 1490 1490 1491 1491 1491 1491 1491 1491 1491 1491 1492 1492 1491 1490 1489 1489 1487 1487 1486 1485 1484 1483 1482 1482 1480 1479 1478 1478 1478 1478 1477 1477 1477 1477 1477 1477 1476 1476 1475 1475 1475 1475
1488 1488 1489 1489 1489 1489 1489 1489 1490 1489 1489 1490 1490 1490 1489 1488 1487 1486 1485 1484 1483 1482 1481 1480 1479 1478 1477 1476 1476 1476 1476 1475 1475 1475 1474 1474 1474 1473 1473 1472 1471 1471 1470
1487 1487 1487 1487 1488 1488 1488 1488 1488 1488 1488 1488 1488 1488 1487 1486 1485 1484 1483 1482 1481 1480 1479 1478 1476 1476 1475 1474 1474 1473 1473 1473 1472 1472 1471 1470 1470 1469 1469 1469 1468 1467 1467
1485 1486 1486 1486 1486 1486 1486 1486 1487 1487 1487 1486 1486 1485 1484 1484 1483 1482 1482 1481 1480 1479 1478 1476 1475 1474 1474 1473 1472 1471 1471 1470 1469 1469 1468 1467 1466 1466 1465 1465 1464 1464 1463
1485 1485 1485 1485 1485 1485 1485 1485 1484 1485 1485 1484 1483 1483 1482 1482 1481 1480 1480 1479 1478 1477 1476 1474 1474 1473 1472 1471 1470 1469 1468 1467 1466 1466 1465 1464 1463 1462 1462 1461 1460 1460 1459
1484 1484 1484 1483 1484 1484 1483 1483 1483 1483 1482 1481 1481 1481 1480 1479 1479 1478 1478 1477 1476 1475 1474 1473 1472 1471 1470 1469 1468 1467 1465 1464 1463 1462 1461 1460 1459 1458 1458 1457 1456 1456 1455
1483 1483 1483 1483 1482 1482 1482 1482 1482 1481 1481 1480 1479 1478 1478 1477 1476 1476 1475 1474 1473 1472 1472 1471 1469 1468 1467 1466 1465 1464 1462 1461 1459 1458 1457 1456 1455 1455 1454 1453 1452 1452 1451
1481 1481 1481 1481 1481 1481 1481 1481 1481 1480 1479 1479 1478 1477 1476 1475 1474 1474 1473 1472 1471 1470 1469 1468 1467 1466 1464 1463 1462 1460 1459 1458 1456 1455 1454 1453 1452 1451 1450 1449 1448 1447 1447
1479 1479 1479 1479 1479 1479 1479 1479 1479 1478 1478 1477 1476 1475 1474 1473 1472 1471 1470 1469 1468 1467 1466 1465 1464 1463 1461 1460 1458 1457 1456 1454 1453 1451 1450 1449 1448 1447 1446 1445 1444 1443 1443
1478 1478 1478 1477 1477 1477 1477 1477 1476 1476 1476 1475 1474 1473 1472 1471 1470 1469 1468 1466 1465 1464 1463 1462 1461 1459 1458 1457 1455 1453 1452 1450 1449 1447 1446 1445 1444 1443 1442 1441 1440 1439 1438
1476 1476 1476 1475 1475 1475 1475 1474 1474 1474 1473 1472 1471 1470 1469 1468 1467 1466 1465 1463 1462 1461 1459 1458 1457 1456 1454 1453 1452 1450 1448 1446 1445 1444 1442 1441 1440 1439 1438 1437 1436 1435 1435
1474 1474 1474 1473 1473 1473 1473 1472 1471 1471 1470 1470 1469 1468 1466 1465 1464 1463 1461 1460 1459 1458 1456 1455 1453 1452 1450 1449 1448 1446 1444 1443 1441 1440 1439 1438 1437 1436 1435 1434 1433 1432 1431
1472 1472 1472 1471 1471 1470 1470 1469 1469 1468 1467 1467 1466 1465 1463 1462 1461 1459 1458 1456 1455 1454 1452 1451 1449 1448 1446 1444 1443 1442 1440 1439 1438 1436 1435 1434 1433 1432 1431 1430 1429 1429 1428
1470 1470 1469 1469 1468 1467 1467 1466 1466 1465 1464 1463 1462 1461 1461 1459 1458 1456 1454 1453 1452 1450 1448 1447 1445 1443 1442 1440 1439 1437 1436 1435 1433 1432 1431 1430 1429 1428 1428 1427 1426 1425 1425